(250254) = 2003 BL23 = 2004 HB58

Discovered at Palomar on 2003-01-25 by NEAT.

Orbit

Orbit type: Main Belt

Note: WebGL enabled browser required.

epoch2024-03-31.0
epoch JD2460400.5
perihelion date2023-05-28.89239
perihelion JD2460093.39239
argument of perihelion (°)197.57819
ascending node (°)220.74684
inclination (°)11.18805
eccentricity0.2484309
perihelion distance (AU)1.9479796
Tisserand w.r.t. Jupiter3.3
ΔV w.r.t. Earth (km/sec)9.4
semimajor axis (AU)2.5918834
mean anomaly (°)72.53895
mean daily motion (°/day)0.23620040
aphelion distance (AU)3.236
period (years)4.17
P-vector [x]0.52884618
P-vector [y]0.80013413
P-vector [z]0.28303196
Q-vector [x]-0.83921532
Q-vector [y]0.54275363
Q-vector [z]0.03370682
absolute magnitude16.33
phase slope0.15
uncertainty0
referenceMPEC 2024-E23
observations used624
oppositions15
arc length (days)7780
first opposition used2002
last opposition used2024
residual rms (arc-secs)0.74
perturbers coarse indicatorM-v
perturbers precise indicator003Ek
first observation date used2002-11-13.0
last observation date used2024-03-02.0
computer nameMPCLINUX
JD of orbit computation2456966.934608
perihelion JD uncertainty (days)4.5625E-05
argument of perihelion uncertainty (°)2.1447E-05
ascending node uncertainty (°)1.7786E-05
inclination uncertainty (°)5.8179E-06
eccentricity uncertainty 1.0428E-07
perihelion distance uncertainty (AU)2.8913E-07
Minimum Orbit Intersection Distances (in AU)
for orbit epoch: 2460400.5, reference: E2024-G77
Mercury1.63677
Venus1.22666
Earth0.96288
Mars0.46731
Jupiter2.14082
Saturn6.68613
Uranus15.5311
Neptune27.3634

Observations

646 total observations over interval: 2002 11 13.471470 – 2024 03 02.231228
These data are available for download (format description).

Date (UT) J2000 RA J2000 Dec Magn Location Ref
2002 11 13.471470 08 48 03.565 +05 07 55.74 20.97 V 645 – Apache Point-Sloan Digital Sky Survey MPS 211736
2002 11 13.474942 08 48 03.749 +05 07 53.33 21.94   645 – Apache Point-Sloan Digital Sky Survey MPS 211736
2002 11 18.49206 08 52 15.42 +04 13 07.8 20.5   644 – Palomar Mountain/NEAT MPS 112837
2002 11 18.50249 08 52 15.87 +04 13 01.1 20.1   644 – Palomar Mountain/NEAT MPS 112837
2002 11 18.51293 08 52 16.29 +04 12 54.4 20.7   644 – Palomar Mountain/NEAT MPS 112837
2003 01 02.38198 08 56 06.69 -01 41 15.5 18.9   704 – Lincoln Laboratory ETS, New Mexico MPS 112837
2003 01 02.39701 08 56 06.10 -01 41 19.0 19.3   704 – Lincoln Laboratory ETS, New Mexico MPS 112837
2003 01 02.41189 08 56 05.51 -01 41 20.4 19.6   704 – Lincoln Laboratory ETS, New Mexico MPS 112837
2003 01 02.44164 08 56 04.37 -01 41 27.0 19.6   704 – Lincoln Laboratory ETS, New Mexico MPS 112837
2003 01 25.35759 08 36 57.19 -01 41 16.9 19.1   644 – Palomar Mountain/NEAT MPS 71904
2003 01 25.37877 08 36 55.94 -01 41 12.8 19.2   644 – Palomar Mountain/NEAT MPS 71904
2003 01 25.39983 08 36 54.68 -01 41 08.6 19.2   644 – Palomar Mountain/NEAT MPS 71904
2003 01 27.41655 08 34 59.72 -01 34 01.8 20.7   608 – Haleakala-AMOS MPS 73343
2003 01 27.42747 08 34 59.05 -01 33 59.6 20.8   608 – Haleakala-AMOS MPS 73343
2003 01 27.43789 08 34 58.44 -01 33 56.6 21.2   608 – Haleakala-AMOS MPS 73343
2003 01 28.33242 08 34 07.36 -01 30 30.3 19.4   704 – Lincoln Laboratory ETS, New Mexico MPS 71904
2003 01 28.34782 08 34 06.53 -01 30 26.7 19.3   704 – Lincoln Laboratory ETS, New Mexico MPS 71904
2003 01 28.36330 08 34 05.61 -01 30 22.3 19.5   704 – Lincoln Laboratory ETS, New Mexico MPS 71904
2003 01 28.37859 08 34 04.69 -01 30 19.6 19.5   704 – Lincoln Laboratory ETS, New Mexico MPS 71904
2004 04 22.32526 14 52 32.60 -16 22 18.8 21.5 V 691 – Steward Observatory, Kitt Peak-Spacewatch MPS 106355
2004 04 22.35180 14 52 31.25 -16 22 09.0 21.2 V 691 – Steward Observatory, Kitt Peak-Spacewatch MPS 106355
2004 04 22.38384 14 52 29.62 -16 21 57.1 21.0 V 691 – Steward Observatory, Kitt Peak-Spacewatch MPS 106355
2004 04 28.31609 14 47 29.55 -15 43 52.5 21.1 V 291 – LPL/Spacewatch II MPS 106355
2004 04 28.32738 14 47 28.98 -15 43 47.9 21.9 V 291 – LPL/Spacewatch II MPS 106355
2004 04 28.33582 14 47 28.52 -15 43 44.7 20.8 V 291 – LPL/Spacewatch II MPS 106355
2004 05 09.25994 14 38 08.06 -14 31 48.5 21.4 V 691 – Steward Observatory, Kitt Peak-Spacewatch MPS 106822
2004 05 09.28824 14 38 06.59 -14 31 37.4 21.2 V 691 – Steward Observatory, Kitt Peak-Spacewatch MPS 106822
2004 05 09.31662 14 38 05.11 -14 31 25.7 21.4 V 691 – Steward Observatory, Kitt Peak-Spacewatch MPS 106822
2006 11 19.32186 06 59 53.00 +10 05 07.6 18.7 C 704 – Lincoln Laboratory ETS, New Mexico MPS 294400
2006 11 19.33423 06 59 52.81 +10 04 55.2 17.8 C 704 – Lincoln Laboratory ETS, New Mexico MPS 294400
2006 11 19.34662 06 59 52.61 +10 04 51.4 16.0 C 704 – Lincoln Laboratory ETS, New Mexico MPS 294400
2006 11 19.35941 06 59 52.68 +10 04 48.4 17.2 C 704 – Lincoln Laboratory ETS, New Mexico MPS 294400
2006 11 19.37198 06 59 52.88 +10 04 37.3 18.9 C 704 – Lincoln Laboratory ETS, New Mexico MPS 294400
2006 12 22.23686 06 41 52.68 +05 38 14.5 18.2 C 704 – Lincoln Laboratory ETS, New Mexico MPS 293176
2006 12 22.24893 06 41 51.96 +05 38 11.7 17.6 C 704 – Lincoln Laboratory ETS, New Mexico MPS 293176
2006 12 22.26077 06 41 51.37 +05 38 09.3 17.4 C 704 – Lincoln Laboratory ETS, New Mexico MPS 293176
2006 12 22.27257 06 41 50.61 +05 38 06.5 18.2 C 704 – Lincoln Laboratory ETS, New Mexico MPS 293176
2006 12 22.28436 06 41 49.98 +05 38 03.8 17.7 C 704 – Lincoln Laboratory ETS, New Mexico MPS 293176
2007 02 07.156946 06 12 16.816 +06 15 10.56 19.53 V 645 – Apache Point-Sloan Digital Sky Survey MPS 390422
2007 02 07.160418 06 12 16.810 +06 15 11.55 20.39   645 – Apache Point-Sloan Digital Sky Survey MPS 390422
2008 04 14.36317 14 01 07.75 -15 29 28.7 20.4 V G96 – Mt. Lemmon Survey MPS 286874
2008 04 14.36986 14 01 07.39 -15 29 25.5 20.1 V G96 – Mt. Lemmon Survey MPS 286874
2008 04 14.37657 14 01 06.99 -15 29 23.0 20.0 V G96 – Mt. Lemmon Survey MPS 286874
2008 04 14.38331 14 01 06.70 -15 29 19.9 20.2 V G96 – Mt. Lemmon Survey MPS 286874
2009 06 13.508740 18 42 30.424 -09 44 49.86 20.20 r F51 – Pan-STARRS 1, Haleakala MPS 291698
2009 06 13.519837 18 42 29.879 -09 44 47.76 20.16 r F51 – Pan-STARRS 1, Haleakala MPS 291698
2010 09 08.37339 03 44 45.92 +22 44 54.2 19.4   704 – Lincoln Laboratory ETS, New Mexico MPS 347077
2010 09 08.38504 03 44 46.81 +22 44 52.5 20.1   704 – Lincoln Laboratory ETS, New Mexico MPS 347077
2010 09 08.39672 03 44 47.66 +22 44 51.1 20.1   704 – Lincoln Laboratory ETS, New Mexico MPS 347077
2010 09 08.40852 03 44 48.54 +22 44 51.9 20.1   704 – Lincoln Laboratory ETS, New Mexico MPS 347077
2010 09 11.42904 03 48 27.21 +22 40 54.5 19.6 V G96 – Mt. Lemmon Survey MPS 347911
2010 09 11.43486 03 48 27.61 +22 40 53.9 19.5 V G96 – Mt. Lemmon Survey MPS 347911
2010 09 11.44069 03 48 28.00 +22 40 53.5 19.6 V G96 – Mt. Lemmon Survey MPS 347911
2010 09 11.44652 03 48 28.40 +22 40 53.0 19.6 V G96 – Mt. Lemmon Survey MPS 347911
2010 09 15.39514 03 52 54.89 +22 33 08.1 19.7   704 – Lincoln Laboratory ETS, New Mexico MPS 347911
2010 09 15.43166 03 52 57.21 +22 33 02.0 20.0   704 – Lincoln Laboratory ETS, New Mexico MPS 347911
2010 09 15.44397 03 52 57.95 +22 33 00.6 20.0   704 – Lincoln Laboratory ETS, New Mexico MPS 347911
2010 09 21.494697 03 58 59.317 +22 15 06.87 19.08 z F51 – Pan-STARRS 1, Haleakala MPS 366785
2010 09 21.506750 03 58 59.952 +22 15 04.48 19.18 z F51 – Pan-STARRS 1, Haleakala MPS 366785
2010 10 01.43708 04 06 34.34 +21 29 37.9 19.0 V 703 – Catalina Sky Survey MPS 350996
2010 10 01.44343 04 06 34.56 +21 29 36.3 19.0 V 703 – Catalina Sky Survey MPS 350996
2010 10 01.44979 04 06 34.74 +21 29 33.1 19.2 V 703 – Catalina Sky Survey MPS 350996
2010 10 01.45615 04 06 34.99 +21 29 30.9 19.4 V 703 – Catalina Sky Survey MPS 350996
2010 10 08.35731 04 09 56.07 +20 45 48.5 18.6   704 – Lincoln Laboratory ETS, New Mexico MPS 353627
2010 10 08.37055 04 09 56.34 +20 45 43.4 19.0   704 – Lincoln Laboratory ETS, New Mexico MPS 353627
2010 10 08.38388 04 09 56.61 +20 45 37.5 18.9   704 – Lincoln Laboratory ETS, New Mexico MPS 353627
2010 10 08.39730 04 09 56.87 +20 45 31.8 18.8   704 – Lincoln Laboratory ETS, New Mexico MPS 353627
2010 10 08.41057 04 09 57.11 +20 45 26.2 19.0   704 – Lincoln Laboratory ETS, New Mexico MPS 353627
2010 10 10.428554 04 10 36.723 +20 30 45.20 18.89 w F51 – Pan-STARRS 1, Haleakala MPS 366785
2010 10 10.443306 04 10 36.934 +20 30 38.68 18.87 w F51 – Pan-STARRS 1, Haleakala MPS 366785
2010 10 10.458326 04 10 37.158 +20 30 32.13 18.85 w F51 – Pan-STARRS 1, Haleakala MPS 366785
2010 10 10.473038 04 10 37.374 +20 30 25.52 18.78 w F51 – Pan-STARRS 1, Haleakala MPS 366785
2010 10 14.36259 04 11 27.59 +19 59 40.0 19.8   704 – Lincoln Laboratory ETS, New Mexico MPS 353627
2010 10 14.37625 04 11 27.67 +19 59 33.2 19.6   704 – Lincoln Laboratory ETS, New Mexico MPS 353627
2010 10 14.38991 04 11 27.72 +19 59 27.0 19.4   704 – Lincoln Laboratory ETS, New Mexico MPS 353627
2010 10 14.40359 04 11 27.79 +19 59 19.7 19.5   704 – Lincoln Laboratory ETS, New Mexico MPS 353627
2010 10 14.41728 04 11 27.86 +19 59 13.8 19.5   704 – Lincoln Laboratory ETS, New Mexico MPS 353627
2010 10 29.45699 04 09 32.72 +17 32 58.8 18.4 V 703 – Catalina Sky Survey MPS 355156
2010 10 29.46508 04 09 32.47 +17 32 53.7 18.2 V 703 – Catalina Sky Survey MPS 355156
2010 10 29.47319 04 09 32.29 +17 32 48.5 18.4 V 703 – Catalina Sky Survey MPS 355156
2010 10 29.48129 04 09 32.11 +17 32 42.7 18.3 V 703 – Catalina Sky Survey MPS 355156
2010 10 30.27663 04 09 13.60 +17 23 55.8 18.5 V 691 – Steward Observatory, Kitt Peak-Spacewatch MPS 355156
2010 10 30.29436 04 09 13.10 +17 23 44.2 18.5 V 691 – Steward Observatory, Kitt Peak-Spacewatch MPS 355156
2010 10 30.31210 04 09 12.62 +17 23 32.5 18.5 V 691 – Steward Observatory, Kitt Peak-Spacewatch MPS 355156
2010 11 04.07795 04 06 53.62 +16 29 12.1 17.9 V J75 – OAM Observatory, La Sagra MPS 355156
2010 11 04.09061 04 06 53.21 +16 29 03.2 17.9 V J75 – OAM Observatory, La Sagra MPS 355157
